| time (UTC) | temp F | wind direction | speed knots | gust knots | rain 1hr in | rain 24hr in | rain mn in | humidity % | barometer mb |
| 20260505061031 | 61 | 287 | 0.9 | 7.0 | 0.00 | 0.00 | 0.00 | 83 | 1013.4 |
| 20260505060543 | 61 | 222 | 2.6 | 4.3 | 0.00 | 0.00 | 0.00 | 75 | 1013.4 |
| 20260505060031 | 61 | 217 | 1.7 | 4.3 | 0.00 | 0.00 | 0.00 | 74 | 1013.5 |
| 20260505055755 | 61 | 252 | 0.9 | 2.6 | 0.00 | 0.00 | 0.00 | 74 | 1013.5 |
| 20260505055028 | 61 | 254 | 0.0 | 4.3 | 0.00 | 0.00 | 0.00 | 74 | 1013.5 |
| 20260505054529 | 61 | 242 | 2.6 | 4.3 | 0.00 | 0.00 | 0.00 | 74 | 1013.6 |
| 20260505054029 | 61 | 250 | 0.9 | 4.3 | 0.00 | 0.00 | 0.00 | 73 | 1013.7 |
| 20260505053529 | 61 | 260 | 0.9 | 6.1 | 0.00 | 0.00 | 0.00 | 73 | 1013.7 |
| 20260505053028 | 61 | 229 | 2.6 | 6.1 | 0.00 | 0.00 | 0.00 | 73 | 1013.7 |
| 20260505052527 | 61 | 243 | 2.6 | 6.1 | 0.00 | 0.00 | 0.00 | 73 | 1013.8 |
| 20260505052030 | 61 | 229 | 3.5 | 6.1 | 0.00 | 0.00 | 0.00 | 73 | 1013.8 |
| 20260505051747 | 61 | 224 | 1.7 | 5.2 | 0.00 | 0.00 | 0.00 | 73 | 1013.9 |
| 20260505051026 | 61 | 225 | 3.5 | 5.2 | 0.00 | 0.00 | 0.00 | 73 | 1013.8 |
| 20260505050526 | 61 | 233 | 2.6 | 5.2 | 0.00 | 0.00 | 0.00 | 73 | 1013.9 |
| 20260505041539 | 61 | 217 | 5.2 | 7.0 | 0.00 | 0.00 | 0.00 | 71 | 1014.1 |
| 20260505041028 | 61 | 223 | 2.6 | 7.0 | 0.00 | 0.00 | 0.00 | 72 | 1014.0 |
| 20260505040526 | 61 | 223 | 1.7 | 7.0 | 0.00 | 0.00 | 0.00 | 72 | 1014.0 |
| 20260505040028 | 61 | 210 | 4.3 | 7.0 | 0.00 | 0.00 | 0.00 | 72 | 1014.0 |
| 20260505035527 | 61 | 219 | 2.6 | 6.1 | 0.00 | 0.00 | 0.00 | 72 | 1013.9 |
| 20260505035025 | 61 | 251 | 2.6 | 7.0 | 0.00 | 0.00 | 0.00 | 72 | 1014.0 |
| 20260505034525 | 61 | 262 | 3.5 | 7.0 | 0.00 | 0.00 | 0.00 | 72 | 1013.9 |
| 20260505034027 | 61 | 245 | 4.3 | 7.0 | 0.00 | 0.00 | 0.00 | 71 | 1013.8 |
| 20260505033746 | 61 | 248 | 4.3 | 7.0 | 0.00 | 0.00 | 0.00 | 71 | 1013.8 |
| 20260505033024 | 61 | 262 | 1.7 | 6.1 | 0.00 | 0.00 | 0.00 | 70 | 1013.7 |
| 20260505032539 | 61 | 256 | 1.7 | 7.0 | 0.00 | 0.00 | 0.00 | 70 | 1013.7 |
| 20260505032025 | 61 | 232 | 5.2 | 7.0 | 0.00 | 0.00 | 0.00 | 70 | 1013.7 |
| 20260505031525 | 61 | 224 | 3.5 | 6.1 | 0.00 | 0.00 | 0.00 | 71 | 1013.7 |
| 20260505031028 | 61 | 205 | 3.5 | 5.2 | 0.00 | 0.00 | 0.00 | 72 | 1013.5 |
| 20260505030525 | 61 | 231 | 0.9 | 5.2 | 0.00 | 0.00 | 0.00 | 72 | 1013.5 |
| 20260505030024 | 61 | 254 | 0.9 | 6.1 | 0.00 | 0.00 | 0.00 | 71 | 1013.6 |
| 20260505025525 | 61 | 259 | 3.5 | 6.1 | 0.00 | 0.00 | 0.00 | 72 | 1013.6 |
| 20260505025024 | 60 | 238 | 2.6 | 6.1 | 0.00 | 0.00 | 0.00 | 72 | 1013.5 |
| 20260505024524 | 60 | 251 | 1.7 | 6.1 | 0.00 | 0.00 | 0.00 | 73 | 1013.4 |
| 20260505024244 | 61 | 242 | 0.9 | 6.1 | 0.00 | 0.00 | 0.00 | 73 | 1013.3 |
| 20260505023745 | 61 | 254 | 0.9 | 7.0 | 0.00 | 0.00 | 0.00 | 73 | 1013.3 |
| 20260505023247 | 61 | 256 | 1.7 | 7.0 | 0.00 | 0.00 | 0.00 | 73 | 1013.4 |
| 20260505022524 | 61 | 294 | 4.3 | 7.0 | 0.00 | 0.00 | 0.00 | 73 | 1013.4 |
| 20260505022023 | 62 | 258 | 1.7 | 7.0 | 0.00 | 0.00 | 0.00 | 73 | 1013.4 |
| 20260505021524 | 62 | 307 | 2.6 | 7.0 | 0.00 | 0.00 | 0.00 | 73 | 1013.4 |
| 20260505021025 | 62 | 271 | 2.6 | 11.3 | 0.00 | 0.00 | 0.00 | 72 | 1013.5 |
| 20260505020523 | 63 | 229 | 4.3 | 11.3 | 0.00 | 0.00 | 0.00 | 73 | 1013.4 |
| 20260505020242 | 63 | 248 | 3.5 | 8.7 | 0.00 | 0.00 | 0.00 | 72 | 1013.5 |
| 20260505015524 | 63 | 289 | 7.0 | 8.7 | 0.00 | 0.00 | 0.00 | 68 | 1013.5 |
| 20260505015026 | 63 | 272 | 4.3 | 7.8 | 0.00 | 0.00 | 0.00 | 68 | 1013.6 |
| 20260505014523 | 63 | 333 | 3.5 | 7.0 | 0.00 | 0.00 | 0.00 | 68 | 1013.4 |
| 20260505013524 | 62 | 246 | 2.6 | 8.7 | 0.00 | 0.00 | 0.00 | 67 | 1013.4 |
| 20260505013246 | 62 | 345 | 4.3 | 10.4 | 0.00 | 0.00 | 0.00 | 71 | 1013.5 |
| 20260505012524 | 63 | 329 | 4.3 | 10.4 | 0.00 | 0.00 | 0.00 | 72 | 1013.7 |
| 20260505012246 | 63 | 266 | 5.2 | 8.7 | 0.00 | 0.00 | 0.00 | 70 | 1013.8 |
| 20260505011523 | 64 | 263 | 2.6 | 11.3 | 0.00 | 0.00 | 0.00 | 70 | 1013.7 |
| 20260505011252 | 64 | 262 | 4.3 | 13.0 | 0.00 | 0.00 | 0.00 | 68 | 1013.6 |
| 20260505010522 | 64 | 265 | 2.6 | 13.0 | 0.00 | 0.00 | 0.00 | 68 | 1013.7 |
| 20260505010244 | 65 | 299 | 3.5 | 8.7 | 0.00 | 0.00 | 0.00 | 68 | 1013.7 |
| 20260505005745 | 64 | 10 | 3.5 | 8.7 | 0.00 | 0.00 | 0.00 | 67 | 1013.6 |
| 20260505005022 | 64 | 299 | 3.5 | 11.3 | 0.00 | 0.00 | 0.00 | 67 | 1013.7 |
| 20260505004521 | 64 | 340 | 2.6 | 11.3 | 0.00 | 0.00 | 0.00 | 66 | 1013.8 |
| 20260505004021 | 65 | 266 | 4.3 | 8.7 | 0.00 | 0.00 | 0.00 | 67 | 1013.8 |
| 20260505003523 | 65 | 308 | 2.6 | 7.8 | 0.00 | 0.00 | 0.00 | 67 | 1013.8 |
| 20260505003023 | 65 | 7 | 4.3 | 7.8 | 0.00 | 0.00 | 0.00 | 67 | 1013.8 |
| 20260505002520 | 65 | 0 | 4.3 | 8.7 | 0.00 | 0.00 | 0.00 | 67 | 1013.8 |
| 20260505002021 | 65 | 355 | 4.3 | 8.7 | 0.00 | 0.00 | 0.00 | 64 | 1013.9 |
| 20260505001750 | 65 | 293 | 4.3 | 10.4 | 0.00 | 0.00 | 0.00 | 64 | 1013.9 |
| 20260505000520 | 65 | 275 | 2.6 | 7.8 | 0.00 | 0.00 | 0.00 | 62 | 1013.9 |
| 20260505000022 | 65 | 230 | 0.9 | 7.8 | 0.00 | 0.00 | 0.00 | 63 | 1014.0 |
| 20260504235521 | 65 | 249 | 0.9 | 7.8 | 0.00 | 0.00 | 0.00 | 63 | 1013.9 |
| 20260504235022 | 65 | 278 | 2.6 | 10.4 | 0.00 | 0.00 | 0.00 | 61 | 1014.0 |
| 20260504234520 | 65 | 278 | 5.2 | 12.2 | 0.00 | 0.00 | 0.00 | 63 | 1014.0 |
| 20260504234020 | 65 | 247 | 2.6 | 12.2 | 0.00 | 0.00 | 0.00 | 65 | 1014.0 |
| 20260504233741 | 65 | 267 | 6.1 | 8.7 | 0.00 | 0.00 | 0.00 | 64 | 1014.0 |
| 20260504233022 | 65 | 277 | 5.2 | 8.7 | 0.00 | 0.00 | 0.00 | 63 | 1014.0 |
| 20260504232519 | 65 | 297 | 2.6 | 8.7 | 0.00 | 0.00 | 0.00 | 63 | 1013.9 |
| 20260504232019 | 65 | 229 | 5.2 | 10.4 | 0.00 | 0.00 | 0.00 | 64 | 1013.9 |
| 20260504231521 | 65 | 300 | 2.6 | 10.4 | 0.00 | 0.00 | 0.00 | 64 | 1013.8 |
| 20260504231020 | 65 | 218 | 1.7 | 10.4 | 0.00 | 0.00 | 0.00 | 63 | 1013.9 |
| 20260504230020 | 65 | 282 | 4.3 | 13.0 | 0.00 | 0.00 | 0.00 | 64 | 1013.9 |
| 20260504225519 | 65 | 345 | 8.7 | 11.3 | 0.00 | 0.00 | 0.00 | 65 | 1013.8 |
| 20260504225020 | 65 | 319 | 7.0 | 10.4 | 0.00 | 0.00 | 0.00 | 64 | 1014.0 |
| 20260504224520 | 65 | 289 | 4.3 | 10.4 | 0.00 | 0.00 | 0.00 | 60 | 1013.9 |
| 20260504224019 | 65 | 263 | 1.7 | 10.4 | 0.00 | 0.00 | 0.00 | 60 | 1013.9 |
| 20260504223518 | 65 | 355 | 3.5 | 10.4 | 0.00 | 0.00 | 0.00 | 64 | 1013.9 |
| 20260504223020 | 65 | 294 | 6.1 | 10.4 | 0.00 | 0.00 | 0.00 | 63 | 1013.9 |
| 20260504222519 | 65 | 267 | 4.3 | 8.7 | 0.00 | 0.00 | 0.00 | 67 | 1014.0 |
| 20260504222018 | 65 | 326 | 3.5 | 10.4 | 0.00 | 0.00 | 0.00 | 64 | 1014.1 |
| 20260504221518 | 65 | 291 | 5.2 | 13.0 | 0.00 | 0.00 | 0.00 | 67 | 1014.2 |
| 20260504221019 | 65 | 338 | 7.0 | 13.0 | 0.00 | 0.00 | 0.00 | 65 | 1014.2 |
| 20260504220519 | 65 | 353 | 3.5 | 12.2 | 0.00 | 0.00 | 0.00 | 66 | 1014.4 |
| 20260504220019 | 65 | 240 | 3.5 | 13.9 | 0.00 | 0.00 | 0.00 | 63 | 1014.5 |
| 20260504215517 | 65 | 311 | 7.8 | 13.9 | 0.00 | 0.00 | 0.00 | 67 | 1014.4 |
| 20260504215019 | 65 | 353 | 7.0 | 12.2 | 0.00 | 0.00 | 0.00 | 65 | 1014.4 |
| 20260504214518 | 65 | 251 | 2.6 | 12.2 | 0.00 | 0.00 | 0.00 | 66 | 1014.5 |
| 20260504214018 | 65 | 299 | 5.2 | 12.2 | 0.00 | 0.00 | 0.00 | 67 | 1014.6 |
| 20260504213517 | 65 | 359 | 5.2 | 12.2 | 0.00 | 0.00 | 0.00 | 65 | 1014.6 |
| 20260504213019 | 65 | 253 | 4.3 | 12.2 | 0.00 | 0.00 | 0.00 | 65 | 1014.5 |
| 20260504212739 | 65 | 358 | 5.2 | 12.2 | 0.00 | 0.00 | 0.00 | 66 | 1014.5 |
| 20260504212018 | 65 | 247 | 3.5 | 12.2 | 0.00 | 0.00 | 0.00 | 64 | 1014.6 |
| 20260504211517 | 65 | 355 | 7.0 | 12.2 | 0.00 | 0.00 | 0.00 | 66 | 1014.6 |
| 20260504211018 | 65 | 276 | 4.3 | 13.9 | 0.00 | 0.00 | 0.00 | 64 | 1014.7 |
| 20260504210518 | 65 | 248 | 3.5 | 14.8 | 0.00 | 0.00 | 0.00 | 66 | 1014.7 |
| 20260504210243 | 65 | 349 | 8.7 | 14.8 | 0.00 | 0.00 | 0.00 | 66 | 1014.6 |
| 20260504205516 | 65 | 263 | 3.5 | 13.9 | 0.00 | 0.00 | 0.00 | 65 | 1014.7 |
| 20260504205017 | 65 | 286 | 5.2 | 13.9 | 0.00 | 0.00 | 0.00 | 65 | 1014.7 |
| 20260504204518 | 65 | 346 | 6.1 | 13.9 | 0.00 | 0.00 | 0.00 | 68 | 1014.6 |
| 20260504204016 | 65 | 230 | 4.3 | 11.3 | 0.00 | 0.00 | 0.00 | 67 | 1014.7 |
| 20260504203733 | 65 | 262 | 4.3 | 10.4 | 0.00 | 0.00 | 0.00 | 67 | 1014.7 |
| 20260504203016 | 65 | 341 | 6.1 | 10.4 | 0.00 | 0.00 | 0.00 | 67 | 1014.7 |
| 20260504202517 | 65 | 254 | 0.9 | 12.2 | 0.00 | 0.00 | 0.00 | 67 | 1014.5 |
| 20260504202016 | 65 | 341 | 4.3 | 12.2 | 0.00 | 0.00 | 0.00 | 65 | 1014.5 |
| 20260504201515 | 65 | 309 | 4.3 | 11.3 | 0.00 | 0.00 | 0.00 | 66 | 1014.6 |
| 20260504201017 | 65 | 258 | 2.6 | 11.3 | 0.00 | 0.00 | 0.00 | 65 | 1014.6 |
| 20260504200517 | 65 | 310 | 5.2 | 13.9 | 0.00 | 0.00 | 0.00 | 64 | 1014.6 |
| 20260504200017 | 64 | 333 | 4.3 | 13.9 | 0.00 | 0.00 | 0.00 | 65 | 1014.7 |
| 20260504195516 | 64 | 324 | 10.4 | 13.0 | 0.00 | 0.00 | 0.00 | 64 | 1014.6 |
| 20260504195015 | 64 | 330 | 4.3 | 13.0 | 0.00 | 0.00 | 0.00 | 64 | 1014.7 |
| 20260504194737 | 64 | 341 | 6.1 | 13.9 | 0.00 | 0.00 | 0.00 | 67 | 1014.8 |
| 20260504194016 | 64 | 342 | 7.8 | 13.9 | 0.00 | 0.00 | 0.00 | 69 | 1014.7 |
| 20260504193515 | 64 | 272 | 7.0 | 15.6 | 0.00 | 0.00 | 0.00 | 67 | 1014.9 |
| 20260504193239 | 64 | 359 | 7.0 | 15.6 | 0.00 | 0.00 | 0.00 | 68 | 1014.9 |
| 20260504192518 | 64 | 332 | 8.7 | 12.2 | 0.00 | 0.00 | 0.00 | 67 | 1014.9 |
| 20260504192015 | 64 | 273 | 7.0 | 12.2 | 0.00 | 0.00 | 0.00 | 66 | 1015.0 |
| 20260504191514 | 64 | 330 | 7.0 | 12.2 | 0.00 | 0.00 | 0.00 | 66 | 1015.0 |
| 20260504191015 | 64 | 331 | 5.2 | 12.2 | 0.00 | 0.00 | 0.00 | 65 | 1014.9 |
| 20260504190515 | 64 | 327 | 8.7 | 14.8 | 0.00 | 0.00 | 0.00 | 65 | 1015.0 |
| 20260504190015 | 64 | 317 | 5.2 | 13.0 | 0.00 | 0.00 | 0.00 | 65 | 1014.9 |
| 20260504185514 | 64 | 348 | 4.3 | 13.0 | 0.00 | 0.00 | 0.00 | 68 | 1015.0 |
| 20260504185014 | 64 | 266 | 5.2 | 15.6 | 0.00 | 0.00 | 0.00 | 69 | 1014.9 |
| 20260504184515 | 65 | 347 | 12.2 | 15.6 | 0.00 | 0.00 | 0.00 | 67 | 1015.0 |
| 20260504184016 | 65 | 4 | 7.0 | 12.2 | 0.00 | 0.00 | 0.00 | 66 | 1015.0 |
| 20260504183514 | 65 | 252 | 2.6 | 10.4 | 0.00 | 0.00 | 0.00 | 66 | 1015.3 |
| 20260504183014 | 65 | 316 | 1.7 | 12.2 | 0.00 | 0.00 | 0.00 | 68 | 1015.1 |
| 20260504182516 | 65 | 270 | 4.3 | 12.2 | 0.00 | 0.00 | 0.00 | 64 | 1015.2 |
| 20260504182014 | 65 | 357 | 3.5 | 7.8 | 0.00 | 0.00 | 0.00 | 63 | 1015.2 |
| 20260504181513 | 64 | 269 | 4.3 | 8.7 | 0.00 | 0.00 | 0.00 | 60 | 1015.2 |
| 20260504181014 | 64 | 302 | 3.5 | 8.7 | 0.00 | 0.00 | 0.00 | 64 | 1015.2 |
| 20260504180514 | 64 | 258 | 4.3 | 8.7 | 0.00 | 0.00 | 0.00 | 63 | 1015.2 |
| 20260504180015 | 64 | 329 | 4.3 | 7.8 | 0.00 | 0.00 | 0.00 | 65 | 1015.1 |
| 20260504175513 | 64 | 348 | 4.3 | 7.8 | 0.00 | 0.00 | 0.00 | 63 | 1015.2 |
| 20260504175014 | 64 | 323 | 4.3 | 10.4 | 0.00 | 0.00 | 0.00 | 65 | 1015.0 |
| 20260504174514 | 64 | 260 | 4.3 | 10.4 | 0.00 | 0.00 | 0.00 | 64 | 1014.9 |
| 20260504174013 | 64 | 355 | 2.6 | 10.4 | 0.00 | 0.00 | 0.00 | 65 | 1014.9 |
| 20260504173512 | 64 | 274 | 5.2 | 13.0 | 0.00 | 0.00 | 0.00 | 62 | 1015.0 |
| 20260504173012 | 64 | 252 | 2.6 | 13.0 | 0.00 | 0.00 | 0.00 | 67 | 1015.0 |
| 20260504172512 | 64 | 353 | 5.2 | 8.7 | 0.00 | 0.00 | 0.00 | 66 | 1015.0 |
| 20260504172013 | 63 | 295 | 4.3 | 8.7 | 0.00 | 0.00 | 0.00 | 65 | 1015.0 |
| 20260504171512 | 64 | 13 | 3.5 | 11.3 | 0.00 | 0.00 | 0.00 | 65 | 1014.9 |
| 20260504171011 | 63 | 293 | 4.3 | 11.3 | 0.00 | 0.00 | 0.00 | 64 | 1014.9 |
| 20260504170512 | 63 | 359 | 8.7 | 11.3 | 0.00 | 0.00 | 0.00 | 65 | 1014.7 |
| 20260504151009 | 60 | 320 | 1.7 | 5.2 | 0.00 | 0.00 | 0.00 | 69 | 1014.2 |
| 20260504150509 | 60 | 269 | 0.9 | 4.3 | 0.00 | 0.00 | 0.00 | 70 | 1014.2 |
| 20260504141009 | 58 | 274 | 0.0 | 2.6 | 0.00 | 0.00 | 0.00 | 75 | 1013.9 |
| 20260504140508 | 58 | 245 | 0.9 | 1.7 | 0.00 | 0.00 | 0.00 | 76 | 1014.0 |
| 20260504130507 | 58 | 258 | 0.0 | 1.7 | 0.00 | 0.00 | 0.00 | 76 | 1013.6 |
| 20260504110504 | 59 | 325 | 3.5 | 10.4 | 0.00 | 0.00 | 0.00 | 74 | 1013.5 |
| 20260504100504 | 59 | 334 | 2.6 | 5.2 | 0.00 | 0.00 | 0.00 | 75 | 1013.2 |
| 20260504081736 | 60 | 338 | 5.2 | 12.2 | 0.00 | 0.00 | 0.00 | 77 | 1013.8 |
| 20260504081238 | 60 | 342 | 8.7 | 10.4 | 0.00 | 0.00 | 0.00 | 77 | 1014.0 |
| 20260504080238 | 60 | 334 | 7.0 | 8.7 | 0.00 | 0.00 | 0.00 | 76 | 1014.1 |
| 20260504070237 | 61 | 274 | 3.5 | 12.2 | 0.00 | 0.00 | 0.00 | 76 | 1014.4 |